Location: Bauen
(46.9356°N, 8.5784°E)
Time: 14:38:26
(UTC+00:00)

SKYMED 2 - Pass Details

Date: 18 February 2020
Orbit: 621 x 623 km, 97.9° (Epoch: 28 March)

Event Time Altitude Azimuth Distance (km) Brightness Sun altitude
Rises 05:04:55 0° 184° (S) 2,892 7.0 -14.5°
Reaches altitude 10° 05:07:12 10° 191° (S) 1,990 6.1 -14.1°
Maximum altitude 05:11:17 41° 262° (W) 915 3.9 -13.4°
Drops below altitude 10° 05:15:25 10° 333° (NNW) 2,006 5.9 -12.7°
Sets 05:17:44 0° 341° (NNW) 2,917 6.8 -12.3°
